Simultaneous Nadir Overpasses (SNOs) Predictions

Prediction of SNOs between METOP-A and NOAA-19 Satellite Orbit:

Table of predicted SNOs for the next 14.0 days since TLE Epoch: 3/27/2020
Index Date (METOP-A) Time (METOP-A) Lat,Lon (METOP-A) SZA (METOP-A ) Date (NOAA-19) Time (NOAA-19) Lat,Lon (NOAA-19) SZA (NOAA-19 ) Distance(km) Time Diff (sec)
1 03/28/2020 05:59:44 -80.40, -76.28 102.61 03/28/2020 05:58:42 -80.38, -76.23 102.64 2.52 62
2 03/28/2020 06:50:25 80.39, 90.94 77.37 03/28/2020 06:49:40 80.40, 90.80 77.36 2.58 45
3 03/28/2020 07:41:06 -80.39,-101.75 102.65 03/28/2020 07:40:43 -80.39,-101.85 102.66 1.79 23
4 03/28/2020 08:31:47 80.38, 65.47 77.33 03/28/2020 08:31:40 80.38, 65.52 77.33 1.00 7
5 03/28/2020 09:22:28 -80.38,-127.22 102.69 03/28/2020 09:22:43 -80.38,-127.13 102.69 1.77 15
6 03/28/2020 10:13:09 80.37, 40.00 77.28 03/28/2020 10:13:41 80.39, 39.91 77.30 2.62 32
7 03/28/2020 11:03:50 -80.37,-152.69 102.74 03/28/2020 11:04:44 -80.38,-152.75 102.72 1.86 54
8 03/28/2020 11:54:31 80.36, 14.53 77.24 03/28/2020 11:55:41 80.38, 14.63 77.27 2.69 70
9 04/08/2020 06:22:27 80.41, 97.90 73.22 04/08/2020 06:21:18 80.43, 97.74 73.22 3.35 69
10 04/08/2020 07:13:08 -80.42, -94.68 106.79 04/08/2020 07:12:18 -80.41, -94.72 106.81 1.01 50
11 04/08/2020 08:03:49 80.40, 72.43 73.17 04/08/2020 08:03:18 80.42, 72.47 73.19 1.90 31
12 04/08/2020 08:54:30 -80.41,-120.15 106.83 04/08/2020 08:54:18 -80.40,-120.00 106.83 2.90 12
13 04/08/2020 09:45:10 80.42, 47.27 73.17 04/08/2020 09:45:18 80.40, 47.19 73.16 2.04 8
14 04/08/2020 10:35:52 -80.40,-145.62 106.87 04/08/2020 10:36:19 -80.41,-145.62 106.86 1.16 27
15 04/08/2020 11:26:32 80.40, 21.80 73.13 04/08/2020 11:27:18 80.39, 21.91 73.13 2.48 46




NCC Satellite Simultaneous Nadir Overpasses (SNOs) Prediction Service
